Perth, Australia

2:30 PM AWST on April 23, 2017 (GMT +0800)
Perth International

Weather History for YPPH - January, 2014

Change the Weather History Date:

Sunday, January 19, 2014

  Actual Average Record
Temperature  
Mean Temperature 85 °F -  
Max Temperature 104 °F 89 °F 104 °F (2014)
Min Temperature 66 °F 64 °F 48 °F (2007)
Cooling Degree Days 20    
Growing Degree Days 35 (Base 50)    
Moisture  
Dew Point 44 °F    
Average Humidity 22    
Maximum Humidity 49    
Minimum Humidity 4    
Precipitation  
Precipitation 0.00 in 0.02 in - ()
Sea Level Pressure  
Sea Level Pressure 29.80 in    
Wind  
Wind Speed 11 mph ()    
Max Wind Speed 21 mph    
Max Gust Speed 32 mph    
Visibility 19.0 miles    
Events      
Averages and records for this station are not official NWS values.
T = Trace of Precipitation, MM = Missing Value Source: Averaged Metar Reports

Daily Weather History Graph

Daily Weather History Graph

Search for Another Location

Airport or City:

Trip Planner

Search our weather history database for the weather conditions in past years. The results will help you decide how hot, cold, wet, or windy it might be!

Date:

Astronomy

Jan. 19, 2014 Rise Set
Actual Time 5:28 AM AWST 7:24 PM AWST
Civil Twilight 5:01 AM AWST 7:51 PM AWST
Nautical Twilight 4:28 AM AWST 8:24 PM AWST
Astronomical Twilight 3:53 AM AWST 8:59 PM AWST
Moon 8:58 PM AWST (1/19) 8:02 AM AWST (1/19)
Length of Visible Light 14h 50m
Length of Day
13h 55m
Waning Gibbous, 92% of the Moon is Illuminated
Jan 19
Waning Gibbous
Jan 24
Last Quarter
Jan 31
New
Feb 7
First Quarter
Feb 15
Full

Hourly Weather History & Observations

Time (AWST) Temp. Dew Point Humidity Pressure Visibility Wind Dir Wind Speed Gust Speed Precip Events Conditions
12:00 AM 69 °F 50 °F 40% 29.84 in 19 mi SE 3.5 mph - -   Partly Cloudy
12:00 AM 69.8 °F 50.0 °F 49% 29.83 in - SE 3.5 mph - N/A   Clear
12:29 AM 78.8 °F 42.8 °F 28% 29.83 in - East 12.7 mph - N/A   Clear
12:30 AM 78.8 °F 41.0 °F 26% 29.83 in - East 12.7 mph - N/A   Clear
1:00 AM 80.6 °F 42.8 °F 26% 29.83 in - East 12.7 mph 24.2 mph N/A   Clear
1:30 AM 80.6 °F 42.8 °F 26% 29.83 in - East 16.1 mph - N/A   Clear
1:46 AM 80.6 °F 41.0 °F 24% 29.83 in - East 19.6 mph 31.1 mph N/A   Clear
2:00 AM 80 °F 38 °F 13% 29.83 in - East 16.1 mph - -  
2:00 AM 80.6 °F 39.2 °F 23% 29.83 in - East 16.1 mph - N/A   Clear
2:30 AM 78.8 °F 37.4 °F 23% 29.83 in - East 13.8 mph - N/A   Clear
3:00 AM 78 °F 36 °F 13% 29.83 in 19 mi ESE 11.5 mph - -   Partly Cloudy
3:00 AM 78.8 °F 37.4 °F 23% 29.83 in - ESE 11.5 mph - N/A   Clear
3:30 AM 77.0 °F 39.2 °F 26% 29.83 in - ESE 8.1 mph - N/A   Clear
4:00 AM 77.0 °F 42.8 °F 29% 29.83 in - ESE 11.5 mph - N/A   Clear
4:30 AM 75.2 °F 44.6 °F 34% 29.83 in - ESE 8.1 mph - N/A   Clear
5:00 AM 74 °F 46 °F 26% 29.85 in - East 10.4 mph - -  
5:00 AM 75.2 °F 46.4 °F 36% 29.83 in - East 10.4 mph - N/A   Clear
5:30 AM 75.2 °F 46.4 °F 36% 29.86 in - East 8.1 mph - N/A   Clear
6:00 AM 73 °F 48 °F 30% 29.86 in 19 mi East 13.8 mph - -   Partly Cloudy
6:00 AM 73.4 °F 48.2 °F 41% 29.86 in - East 13.8 mph - N/A   Clear
6:30 AM 75.2 °F 48.2 °F 38% 29.86 in - East 13.8 mph - N/A   Clear
7:00 AM 75.2 °F 50.0 °F 41% 29.86 in - East 11.5 mph - N/A   Clear
7:30 AM 77.0 °F 50.0 °F 39% 29.86 in - ENE 13.8 mph - N/A   Clear
8:00 AM 80 °F 52 °F 27% 29.88 in - ENE 13.8 mph - -  
8:00 AM 80.6 °F 51.8 °F 37% 29.89 in - ENE 13.8 mph - N/A   Clear
8:30 AM 82.4 °F 51.8 °F 35% 29.86 in - East 20.7 mph - N/A   Clear
9:00 AM 86 °F 51 °F 20% 29.87 in 19 mi East 18.4 mph - -   Partly Cloudy
9:00 AM 86.0 °F 51.8 °F 31% 29.86 in - East 18.4 mph - N/A   Clear
9:30 AM 87.8 °F 50.0 °F 27% 29.86 in - East 11.5 mph - N/A   Clear
10:00 AM 91.4 °F 50.0 °F 24% 29.86 in - East 9.2 mph - N/A   Clear
10:30 AM 93.2 °F 50.0 °F 23% 29.86 in - ESE 9.2 mph - N/A   Clear
11:00 AM 95 °F 46 °F 11% 29.85 in - ESE 11.5 mph - -  
11:00 AM 95.0 °F 46.4 °F 19% 29.83 in - ESE 11.5 mph - N/A   Clear
11:30 AM 95.0 °F 42.8 °F 16% 29.83 in - ESE 12.7 mph - N/A   Clear
12:00 PM 99 °F 41 °F 7% 29.83 in 19 mi SE 13.8 mph - -   Partly Cloudy
12:00 PM 98.6 °F 41.0 °F 14% 29.83 in - SE 13.8 mph - N/A   Clear
12:30 PM 98.6 °F 42.8 °F 15% 29.80 in - SE 11.5 mph - N/A   Clear
1:00 PM 100.4 °F 39.2 °F 12% 29.80 in - South 9.2 mph - N/A   Clear
1:30 PM 102.2 °F 37.4 °F 11% 29.77 in - SSE 13.8 mph - N/A   Clear
2:00 PM 103 °F 35 °F 4% 29.78 in - SE 13.8 mph - -  
2:00 PM 102.2 °F 35.6 °F 10% 29.77 in - SE 13.8 mph - N/A   Clear
2:30 PM 102.2 °F 37.4 °F 11% 29.77 in - South 5.8 mph - N/A   Clear
3:00 PM 102 °F 40 °F 6% 29.75 in - South 9.2 mph - -  
3:00 PM 102.2 °F 39.2 °F 11% 29.74 in - South 9.2 mph - N/A   Clear
3:30 PM 104.0 °F 39.2 °F 11% 29.74 in - SW 15.0 mph - N/A   Clear
4:00 PM 100.4 °F 48.2 °F 17% 29.74 in - WSW 17.3 mph 32.2 mph N/A   Clear
4:30 PM 100.4 °F 48.2 °F 17% 29.71 in - WSW 17.3 mph - N/A   Clear
5:00 PM 99 °F 50 °F 12% 29.73 in - SW 16.1 mph - -  
5:00 PM 98.6 °F 50.0 °F 19% 29.71 in - SW 16.1 mph - N/A   Clear
5:30 PM 98.6 °F 51.8 °F 21% 29.71 in - SW 19.6 mph - N/A   Clear
6:00 PM 100 °F 40 °F 6% 29.73 in 19 mi SSW 15.0 mph - -   Partly Cloudy
6:00 PM 100.4 °F 39.2 °F 12% 29.71 in - SW 16.1 mph - N/A   Clear
6:30 PM 98.6 °F 48.2 °F 18% 29.71 in - SSW 15.0 mph - N/A   Clear
7:00 PM 96.8 °F 41.0 °F 15% 29.74 in - SSW 12.7 mph - N/A   Clear
7:30 PM 93.2 °F 41.0 °F 16% 29.74 in - SSW 9.2 mph - N/A   Clear
8:00 PM 90 °F 42 °F 11% 29.75 in - SSE 8.1 mph - -  
8:00 PM 91.4 °F 42.8 °F 18% 29.74 in - SSE 8.1 mph - N/A   Clear
8:30 PM 89.6 °F 41.0 °F 18% 29.74 in - SSE 13.8 mph - N/A   Clear
9:00 PM 90 °F 43 °F 11% 29.78 in 19 mi ESE 19.6 mph - -   Partly Cloudy
9:00 PM 89.6 °F 42.8 °F 20% 29.77 in - ESE 19.6 mph - N/A   Clear
9:08 PM 89.6 °F 44.6 °F 21% 29.77 in - ESE 19.6 mph 31.1 mph N/A   Clear
9:30 PM 87.8 °F 44.6 °F 22% 29.77 in - ESE 20.7 mph - N/A   Clear
10:00 PM 86.0 °F 46.4 °F 25% 29.80 in - ESE 15.0 mph - N/A   Clear
10:30 PM 84.2 °F 42.8 °F 23% 29.80 in - SSE 15.0 mph - N/A   Clear
11:00 PM 83 °F 43 °F 15% 29.81 in - SSE 13.8 mph - -  
11:00 PM 82.4 °F 42.8 °F 25% 29.80 in - SSE 13.8 mph - N/A   Clear
11:30 PM 80.6 °F 39.2 °F 23% 29.80 in - East 6.9 mph - N/A   Clear